Location: Dehesa de la Cepeda
(40.6574°N, 4.3013°W)
Time: 10:56:22
(UTC+00:00)

Vanguard 2 Rocket - Pass Details

Date: 25 October 2021
Orbit: 555 x 3324 km, 32.9° (Epoch: 09 December)

Event Time Altitude Azimuth Distance (km) Brightness Sun altitude
Exits shadow 01:36:57 11° 145° (SE) 5,635 10.8 -54.6°
Maximum altitude 01:37:46 11° 142° (SE) 5,582 10.8 -54.5°
Drops below altitude 10° 01:41:12 10° 130° (SE) 5,430 10.8 -54.0°
Sets 01:49:49 0° 100° (E) 5,700 11.3 -52.8°
